Waarnemingen

Advertentie
Mijn weer
Hastveda, Zweden (2629): temperatuur & dauwpunt: 13.08.2018 17:00:00 - 19.08.2018 17:00:00 (CEST)Hastveda, Zweden (2629): windsnelheid & windstoten: 13.08.2018 17:00:00 - 19.08.2018 17:00:00 (CEST)Hastveda, Zweden (2629): windrichting: 13.08.2018 17:00:00 - 19.08.2018 17:00:00 (CEST)Hastveda, Zweden (2629): luchtdruk: 13.08.2018 17:00:00 - 19.08.2018 17:00:00 (CEST)Hastveda, Zweden (2629): zicht: 13.08.2018 17:00:00 - 19.08.2018 17:00:00 (CEST)Hastveda, Zweden (2629): neerslag: 13.08.2018 17:00:00 - 19.08.2018 17:00:00 (CEST)
Datum & Tijd tt [°C] td [°C] ff [km/u] ff [kn] fx [km/u] fx [kn] dd ppp [hPa] vv [km] rr [mm]
19.08.2018 17:00:00 19,6 16,5 4 2 14 8 W 1016,2 30 0,0
19.08.2018 16:00:00 19,3 16,1 7 4 22 12 WNW 1016,5 30 0,0
19.08.2018 15:00:00 19,9 15,9 7 4 18 10 W 1016,5 45 0,0
19.08.2018 14:00:00 19,4 15,9 11 6 25 14 W 1017,0 40 0,0
19.08.2018 13:00:00 19,4 15,9 11 6 29 16 W 1017,1 40 0,0
19.08.2018 12:00:00 18,8 16,2 11 6 29 16 W 1017,1 40 0,0
19.08.2018 11:00:00 18,5 15,9 14 8 29 16 W 1017,3 30 0,0
19.08.2018 10:00:00 18,1 15,9 14 8 32 18 W 1017,1 30 0,0
19.08.2018 09:00:00 17,9 15,7 14 8 29 16 W 1016,9 30 0,0
19.08.2018 08:00:00 17,3 15,5 11 6 25 14 W 1016,9 30 0,0
19.08.2018 07:00:00 16,8 15,1 11 6 22 12 WZW 1016,7 30 0,0
19.08.2018 06:00:00 16,7 14,9 11 6 29 16 W 1016,8 30 0,0
19.08.2018 05:00:00 16,8 14,6 11 6 22 12 WZW 1016,6 30 0,0
19.08.2018 04:00:00 17,0 14,6 11 6 29 16 W 1016,6 35 0,0
19.08.2018 03:00:00 17,4 14,3 14 8 29 16 W 1016,7 40 0,0
19.08.2018 02:00:00 17,7 14,4 11 6 25 14 W 1016,7 35 0,0
19.08.2018 01:00:00 18,1 14,6 11 6 25 14 W 1016,7 45 0,0
19.08.2018 00:00:00 18,0 14,9 11 6 32 18 W 1016,9 30 0,0
18.08.2018 23:00:00 18,4 13,7 11 6 25 14 WZW 1016,8 45 0,0
18.08.2018 22:00:00 18,4 13,3 11 6 22 12 WZW 1016,9 50 0,0
18.08.2018 21:00:00 18,0 13,1 11 6 14 8 ZW 1017,2 50 0,0
18.08.2018 20:00:00 18,0 12,9 7 4 22 12 ZW 1017,0 50 0,0
18.08.2018 19:00:00 18,7 12,7 11 6 29 16 ZW 1017,0 45 0,0
18.08.2018 18:00:00 18,9 13,1 11 6 22 12 WZW 1017,2 45 0,0
18.08.2018 17:00:00 18,6 13,2 7 4 25 14 WZW 1017,6 45 0,0
18.08.2018 16:00:00 18,9 12,7 11 6 25 14 WZW 1017,6 45 0,0
18.08.2018 15:00:00 18,7 12,2 11 6 25 14 ZW 1017,9 45 0,0
18.08.2018 14:00:00 20,0 11,7 11 6 25 14 WZW 1018,1 45 0,0
18.08.2018 13:00:00 19,8 11,6 14 8 29 16 WZW 1018,2 45 0,0
18.08.2018 12:00:00 19,3 12,1 14 8 25 14 ZW 1018,5 45 0,0
18.08.2018 11:00:00 16,7 13,2 11 6 22 12 ZW 1019,0 45 0,0
18.08.2018 10:00:00 15,8 15,6 11 6 18 10 W 1019,1 35 0,0
18.08.2018 09:00:00 14,6 14,6 4 2 7 4 WZW 1019,2 13 0,0
18.08.2018 08:00:00 12,8 12,8 4 2 7 4 W 1019,0 7 0,0
18.08.2018 07:00:00 11,2 11,2 7 4 11 6 W 1019,0 2,3 0,0
18.08.2018 06:00:00 10,9 10,9 7 4 7 4 W 1018,6 0,3 0,0
18.08.2018 05:00:00 11,3 11,3 7 4 11 6 W 1018,1 4,4 0,0
18.08.2018 04:00:00 11,7 11,7 7 4 11 6 W 1018,2 6 0,0
18.08.2018 03:00:00 12,3 12,3 7 4 7 4 WZW 1017,8 3,9 0,0
18.08.2018 02:00:00 12,2 12,2 7 4 7 4 WZW 1018,0 2,2 0,0
18.08.2018 01:00:00 12,3 12,3 7 4 7 4 W 1017,9 0,1 0,0
18.08.2018 00:00:00 13,1 13,1 4 2 7 4 W 1017,7 0,1 0,0
17.08.2018 23:00:00 14,0 13,8 4 2 7 4 W 1017,5 0,1 0,0
17.08.2018 22:00:00 14,4 14,2 4 2 7 4 WNW 1017,1 5 0,0
17.08.2018 21:00:00 15,2 15,0 4 2 7 4 W 1016,8 5 0,0
17.08.2018 20:00:00 15,7 15,5 4 2 7 4 W 1016,4 8 0,2
17.08.2018 19:00:00 15,5 15,3 4 2 11 6 NW 1016,0 8 0,6
17.08.2018 18:00:00 15,5 15,2 4 2 25 14 NNW 1016,1 14 2,0
17.08.2018 17:00:00 16,4 15,8 11 6 32 18 NW 1015,8 26 3,0
17.08.2018 16:00:00 21,6 15,0 18 10 32 18 WNW 1015,2 45 0,0
17.08.2018 15:00:00 23,9 14,6 11 6 22 12 WNW 1014,3 45 0,0
17.08.2018 14:00:00 24,8 15,4 4 2 18 10 ZW 1014,2 45 0,0
17.08.2018 13:00:00 24,1 16,1 11 6 22 12 W 1014,7 45 0,0
17.08.2018 12:00:00 23,6 16,4 7 4 18 10 WZW 1014,8 29 0,0
17.08.2018 11:00:00 22,5 17,2 4 2 14 8 W 1014,9 45 0,0
17.08.2018 10:00:00 20,7 17,1 4 2 7 4 WZW 1014,7 45 0,0
17.08.2018 09:00:00 18,6 18,1 4 2 7 4 ZW 1014,7 24 0,0
17.08.2018 08:00:00 17,3 17,1 4 2 7 4 ZZO 1014,6 11 0,0
17.08.2018 07:00:00 16,1 15,9 0 0 7 4 N 1014,6 3,3 0,0
17.08.2018 06:00:00 16,1 15,9 4 2 7 4 ZO 1014,2 2,9 0,0
17.08.2018 05:00:00 16,1 15,9 4 2 7 4 OZO 1014,3 4,0 0,0
17.08.2018 04:00:00 16,2 16,0 4 2 7 4 ZZO 1014,5 3,8 0,0
17.08.2018 03:00:00 16,3 15,8 4 2 11 6 ZZO 1014,6 5 0,0
17.08.2018 02:00:00 17,1 16,6 7 4 14 8 ZO 1014,5 8 0,0
17.08.2018 01:00:00 17,5 16,9 7 4 14 8 ZO 1014,7 11 0,0
17.08.2018 00:00:00 17,8 16,8 7 4 14 8 ZO 1015,2 16 0,0
16.08.2018 23:00:00 17,8 16,0 7 4 14 8 ZO 1015,0 25 0,0
16.08.2018 22:00:00 18,3 15,9 7 4 14 8 ZO 1015,1 40 0,0
16.08.2018 21:00:00 19,6 16,4 7 4 18 10 ZZO 1015,2 45 0,0
16.08.2018 20:00:00 21,1 15,6 7 4 29 16 Z 1015,0 45 0,0
16.08.2018 19:00:00 22,8 15,4 14 8 29 16 Z 1014,9 45 0,0
16.08.2018 18:00:00 24,4 14,2 14 8 29 16 ZW 1014,9 45 0,0
16.08.2018 17:00:00 24,9 15,0 11 6 29 16 ZZW 1015,2 40 0,0
16.08.2018 16:00:00 24,3 15,0 18 10 29 16 ZZW 1015,2 45 0,0
16.08.2018 15:00:00 23,5 15,5 14 8 25 14 ZZW 1015,5 45 0,0
16.08.2018 14:00:00 22,3 18,5 11 6 22 12 ZO 1015,8 22 0,0
16.08.2018 13:00:00 22,8 19,2 11 6 25 14 Z 1016,1 40 0,0
16.08.2018 12:00:00 21,8 17,8 11 6 22 12 Z 1016,6 30 0,0
16.08.2018 11:00:00 20,5 18,3 7 4 14 8 Z 1016,8 30 0,0
16.08.2018 10:00:00 17,9 17,7 4 2 11 6 ZO 1017,0 14 0,1
16.08.2018 09:00:00 15,9 15,7 4 2 7 4 ZO 1017,3 4,9 0,0
16.08.2018 08:00:00 15,3 15,1 4 2 7 4 ZZO 1017,5 3,8 0,0
16.08.2018 07:00:00 14,7 14,7 4 2 7 4 Z 1017,4 2,8 0,0
16.08.2018 06:00:00 13,6 13,4 4 2 7 4 ZO 1017,2 3,3 0,0
16.08.2018 05:00:00 13,7 13,5 4 2 7 4 ZZO 1017,3 2,7 0,0
16.08.2018 04:00:00 14,0 13,8 4 2 7 4 Z 1017,3 3,6 0,0
16.08.2018 03:00:00 14,1 13,9 4 2 7 4 ZO 1017,0 11 0,0
16.08.2018 02:00:00 14,8 14,5 4 2 7 4 ZZW 1017,0 21 0,0
16.08.2018 01:00:00 15,6 15,1 4 2 11 6 WZW 1017,1 21 0,0
16.08.2018 00:00:00 15,9 14,9 7 4 11 6 ZW 1016,8 45 0,0
15.08.2018 23:00:00 16,2 14,7 7 4 11 6 ZW 1016,7 45 0,0
15.08.2018 22:00:00 17,1 14,6 4 2 7 4 W 1016,7 45 0,0
15.08.2018 21:00:00 17,6 14,5 4 2 7 4 W 1016,5 45 0,0
15.08.2018 20:00:00 19,5 14,9 4 2 11 6 W 1015,9 50 0,0
15.08.2018 19:00:00 20,5 14,6 4 2 22 12 W 1015,6 50 0,0
15.08.2018 18:00:00 22,4 13,5 7 4 25 14 W 1015,2 45 0,0
15.08.2018 17:00:00 22,2 13,0 14 8 25 14 W 1015,1 45 0,0
15.08.2018 16:00:00 23,1 13,6 14 8 25 14 WNW 1014,9 45 0,0
15.08.2018 15:00:00 22,2 13,0 11 6 25 14 NW 1014,6 45 0,0
15.08.2018 14:00:00 21,0 13,7 14 8 25 14 W 1014,5 45 0,0
15.08.2018 13:00:00 21,4 13,6 14 8 25 14 WNW 1014,0 45 0,0
15.08.2018 12:00:00 19,3 14,5 14 8 25 14 WNW 1013,7 45 0,0
15.08.2018 11:00:00 18,7 15,4 14 8 29 16 NW 1013,5 45 0,0
15.08.2018 10:00:00 17,0 15,3 14 8 29 16 NW 1013,1 45 0,0
15.08.2018 09:00:00 16,5 15,5 14 8 25 14 WNW 1012,5 45 0,0
15.08.2018 08:00:00 16,1 15,9 11 6 18 10 WNW 1011,7 22 0,0
15.08.2018 07:00:00 15,4 15,2 7 4 11 6 W 1011,1 5 0,0
15.08.2018 06:00:00 14,9 14,7 4 2 11 6 W 1010,7 6 0,0
15.08.2018 05:00:00 14,8 14,6 7 4 14 8 WNW 1010,5 7 0,0
15.08.2018 04:00:00 15,0 14,8 7 4 22 12 W 1010,2 7 0,0
15.08.2018 03:00:00 15,4 15,1 11 6 25 14 NW 1009,7 17 0,0
15.08.2018 02:00:00 16,0 15,8 7 4 22 12 NW 1009,3 11 0,0
15.08.2018 01:00:00 16,6 16,4 11 6 22 12 NW 1008,6 11 0,0
15.08.2018 00:00:00 16,5 16,3 7 4 22 12 WNW 1008,0 8 0,0
14.08.2018 23:00:00 16,2 16,0 7 4 14 8 W 1007,7 7 0,0
14.08.2018 22:00:00 16,1 15,8 7 4 18 10 W 1007,2 10 0,0
14.08.2018 21:00:00 16,7 16,2 7 4 18 10 WNW 1007,1 40 0,0
14.08.2018 20:00:00 17,4 17,1 4 2 22 12 W 1006,4 20 0,0
14.08.2018 19:00:00 18,2 17,9 14 8 22 12 W 1006,1 35 1,0
14.08.2018 18:00:00 19,4 19,2 7 4 18 10 W 1005,7 45 0,1
14.08.2018 17:00:00 17,8 17,8 11 6 18 10 WZW 1005,7 11 0,3
14.08.2018 16:00:00 19,0 19,0 4 2 7 4 ZZO 1005,5 14 0,0
14.08.2018 15:00:00 17,9 17,9 0 0 7 4 N 1005,4 18 0,3
14.08.2018 14:00:00 17,2 17,2 0 0 7 4 N 1005,3 2,1 2,0
14.08.2018 13:00:00 17,0 17,0 4 2 7 4 ZO 1005,2 3,0 0,7
14.08.2018 12:00:00 17,1 17,1 4 2 11 6 Z 1005,0 3,3 11,0
14.08.2018 11:00:00 17,6 17,6 4 2 18 10 ZW 1005,2 0,8 12,0
14.08.2018 10:00:00 17,2 17,2 11 6 14 8 O 1005,0 0,3 15,0
14.08.2018 09:00:00 17,0 17,0 7 4 14 8 O 1005,2 1,4 0,0
14.08.2018 08:00:00 16,1 16,1 7 4 18 10 O 1005,2 1,1 0,3
14.08.2018 07:00:00 15,3 15,3 7 4 14 8 O 1005,6 1,5 0,0
14.08.2018 06:00:00 15,0 15,0 7 4 14 8 ONO 1005,9 1,3 0,0
14.08.2018 05:00:00 14,8 14,8 7 4 14 8 O 1006,3 1,8 0,0
14.08.2018 04:00:00 14,9 14,9 11 6 14 8 ONO 1006,8 2,0 0,0
14.08.2018 03:00:00 14,9 14,9 7 4 14 8 ONO 1007,3 1,6 0,2
14.08.2018 02:00:00 14,8 14,8 7 4 14 8 ONO 1007,8 1,5 0,7
14.08.2018 01:00:00 14,9 14,9 7 4 14 8 O 1008,5 1,4 0,1
14.08.2018 00:00:00 15,1 15,1 7 4 14 8 O 1008,8 1,4 0,1
13.08.2018 23:00:00 14,9 14,9 7 4 11 6 OZO 1009,1 1,1 0,1
13.08.2018 22:00:00 15,0 15,0 4 2 14 8 O 1009,0 0,9 0,4
13.08.2018 21:00:00 15,0 15,0 7 4 14 8 OZO 1009,0 2,2 0,0
13.08.2018 20:00:00 15,3 15,3 7 4 14 8 OZO 1009,0 2,7 0,1
13.08.2018 19:00:00 15,4 15,4 4 2 14 8 OZO 1009,1 1,9 0,1
13.08.2018 18:00:00 15,5 15,5 7 4 14 8 O 1009,2 2,2 0,1
13.08.2018 17:00:00 15,3 15,3 7 4 14 8 OZO 1009,9 4,4 0,0

tt = temperatuur
td = dauwpunt
ff = windsnelheid
fx = windstoten
dd = windrichting
ppp = luchtdruk
vv = zicht
rr = neerslag

Weerstations in de omgeving